Location: Goll?ig?dem
(16.6773°N, 80.7332°E)
Time: 05:55:20
(UTC+00:00)

Cosmos 1656 - Pass Details

Date: 21 April 2021
Orbit: 798 x 849 km, 71.1° (Epoch: 05 May)

Event Time Altitude Azimuth Distance (km) Brightness Sun altitude
Rises 23:25:46 0° 186° (S) 3,301 6.6 -12.7°
Reaches altitude 10° 23:28:13 10° 181° (S) 2,367 5.9 -12.2°
Maximum altitude 23:33:28 54° 105° (ESE) 958 4.4 -11.0°
Drops below altitude 10° 23:38:43 10° 28° (NNE) 2,366 6.7 -9.8°
Sets 23:41:10 0° 24° (NNE) 3,298 7.4 -9.2°
